User: anonymous   Login
Location: Habighorst
(52.7089°N, 10.2278°E)
Time: 00:06:53
(UTC+00:00)
Language:

Cosmos 2344 - Orbit

View from above orbital plane
View from above orbital plane
View from above satellite
View from above satellite

Ground track
Ground track

The orbit is defined by the following mean orbital elements,

1 24827U          26067.62512093 +.00000000 +00000-0 +53036-3 0 00005
2 24827  63.3105  14.5573 1089486  68.4463  93.0820 11.07979787    03
Epoch (UTC): 08 March 2026 15:00:10
Eccentricity: 0.1089486
inclination: 63.3105°
perigee height: 1195 km
apogee height: 3047 km
right ascension of ascending node: 14.5573°
argument of perigee: 68.4463°
revolutions per day: 11.07979787
mean anomaly at epoch: 93.0820°

The dashed part of the orbit path shows where the satellite is in the earth's shadow,  

DLR